Weather Roundup
Issued by NWS

Home | Current Version | Previous Version | Graphics & Text | Print | Product List | Glossary Off
Versions: 1 2 3 4 5 6 7 8 9 10 11 12 13 14 15 16 17 18 19 20 21 22 23 24 25 26 27 28 29 30 31 32 33 34 35 36 37 38 39 40 41 42 43 44 45 46 47 48 49 50

553
NZUS93 KARX 271710
HRRWXR

CURRENT HOURLY OBSERVATIONS ACROSS
MUCH OF THE UPPER MISSISSIPPI VALLEY
NATIONAL WEATHER SERVICE LA CROSSE WI
1200 PM CDT SAT AUG 27 2016


...SOUTHEAST MINNESOTA...


CITY           SKY/WX    TMP DP  RH WIND       PRES   REMARKS
ROCHESTER      CLOUDY    65  63  93 SE9       30.03F
ROCHESTER/MAYO CLOUDY    64  64 100 SE9       30.04S
WINONA         CLOUDY    64  61  88 SE9       30.03F
AUSTIN         CLOUDY    64  61  88 S5        30.02F FOG
ALBERT LEA     CLOUDY    64  63  94 S6        30.02F FOG
DODGE CENTER   CLOUDY    64  63  94 SE3       30.03F FOG
PRESTON        CLOUDY    64  60  88 SE7       30.04S
OWATONNA       LGT RAIN  64  61  88 E6        30.02F
FARIBAULT      CLOUDY    63  63 100 E5        30.03F FOG
$$

...ELSEWHERE IN MINNESOTA...


CITY           SKY/WX    TMP DP  RH WIND       PRES   REMARKS
MINNEAPOLIS    CLOUDY    67  60  78 E10       30.02F
INTNL FALLS    CLOUDY    70  56  61 S8        30.01F
DULUTH         CLOUDY    62  58  86 E6        30.06F
RED WING       HVY RAIN  63  61  94 CALM      30.02F
REDWOOD FALLS  CLOUDY    63  59  87 E8        30.01S
MANKATO        CLOUDY    63  59  88 SE9       30.01F
WORTHINGTON    CLOUDY    64  62  93 SW6       30.02F FOG
FAIRMONT       CLOUDY    63  62  97 SW7       30.02F
$$

...SOUTHWEST WISCONSIN...


CITY           SKY/WX    TMP DP  RH WIND       PRES   REMARKS
LA CROSSE      CLOUDY    67  62  84 SE6       30.03F
PRAIRIE DU CHI CLOUDY    66  65  96 E5        30.01F
BOSCOBEL       CLOUDY    69  64  84 NE6       30.03F
LONE ROCK      CLOUDY    65  63  93 E7        30.04F
PLATTEVILLE    CLOUDY    67  67 100 E6        30.04R
FORT MC COY    CLOUDY    64  61  88 E7        30.05F
CAMP DOUGLAS   CLOUDY    64  63  94 E7        30.05F
MAUSTON-NEW LI CLOUDY    64  62  94 CALM      30.04F
VIROQUA        CLOUDY    67  63  87 E9        30.04F
WIS DELLS      CLOUDY    64  61  90 E9        30.04F
$$

...ELSEWHERE IN WISCONSIN...


CITY           SKY/WX    TMP DP  RH WIND       PRES   REMARKS
MILWAUKEE      CLOUDY    71  66  84 N3        30.05S
MADISON        DRIZZLE   66  64  93 E7        30.04S
GREEN BAY      CLOUDY    63  62  97 E8        30.08F
EAU CLAIRE     CLOUDY    67  58  72 SE7       30.04F
BLACK RVR FLS  CLOUDY    65  63  91 E5        30.05F
MEDFORD        PTSUNNY   67  57  72 E8        30.08F
WAUSAU         CLOUDY    65  57  75 E10       30.07F
WIS RAPIDS     CLOUDY    65  61  87 SE7       30.08S
MARSHFIELD     CLOUDY    65  57  75 E8        30.07F
RICE LAKE      LGT RAIN  66  58  75 E7        30.07F
$$

...NORTHEAST IOWA...


CITY           SKY/WX    TMP DP  RH WIND       PRES   REMARKS
WATERLOO       CLOUDY    69  65  86 SW8       30.01F
DUBUQUE        CLOUDY    68  67  96 CALM      30.03S FOG
DECORAH        CLOUDY    66  64  94 SE5       30.02F
MASON CITY     CLOUDY    66  64  93 S7        30.04S
CHARLES CITY   CLOUDY    66  66 100 S6        30.03S
OELWEIN        CLOUDY    70  66  88 VRB5      30.03F
$$

...ELSEWHERE IN IOWA...


CITY           SKY/WX    TMP DP  RH WIND       PRES   REMARKS
DES MOINES     PTSUNNY   71  66  84 SW3       30.02F
IOWA CITY      CLOUDY    74  67  78 W9        30.04R
FORT DODGE     CLOUDY    70  64  83 SW5       30.03F
MARSHALLTOWN   CLOUDY    69  67  93 SW5       30.02F
CEDAR RAPIDS   CLOUDY    73  69  87 W8        30.01F
$$

...NORTHERN ILLINOIS...


CITY           SKY/WX    TMP DP  RH WIND       PRES   REMARKS
CHICAGO-OHARE  CLOUDY    75  71  87 S9        30.05S
CHICAGO-MIDWAY PTSUNNY   78  71  79 S10G17    30.05F
MOLINE         MOSUNNY   80  70  71 W9        30.01F
ROCKFORD       CLOUDY    77  69  76 S9        30.04S
PEORIA         CLOUDY    74  74 100 SW10      30.05S
$$

NOTE: "FAIR" INDICATES FEW OR NO CLOUDS BELOW 12,000 FEET WITH NO
SIGNIFICANT WEATHER AND/OR OBSTRUCTIONS TO VISIBILITY. WIND
SPEEDS ARE IN MILES-PER-HOUR.




USA.gov is the U.S. government's official web portal to all federal, state and local government web resources and services.